User: anonymous   Login
Location: Caltech
(34.1382°N, 118.1253°W)
Time: 03:47:59
(UTC-07:00)
Language:

RESURS DK-1 - Orbit

View from above orbital plane
View from above orbital plane
View from above satellite
View from above satellite

Ground track
Ground track

The orbit data is extracted from the following two-line orbital elements,

1 29228U 06021A   18114.86408892  .00000001  00000-0  74824-5 0  9993
2 29228  69.9388  25.0073 0007222 241.6640 118.3793 15.02309955654906
Epoch (UTC): 24 April 2018 20:44:17
Eccentricity: 0.0007222
inclination: 69.9388°
perigee height: 555 km
apogee height: 565 km
right ascension of ascending node: 25.0073°
argument of perigee: 241.6640°
revolutions per day: 15.02309955
mean anomaly at epoch: 118.3793°
orbit number at epoch: 65490

The dashed part of the orbit path shows where the satellite is in the earth's shadow,  

DLR